Total_Precipitation_Accumulation
0.09 0.08 0.07 0.08 0.06 0.05 0.05 0.06 0.05 0.05 0.04 0.04 0.04 0.03 0.04 0.06 0.05 0.04 0.05 0.05 0.03 0.03 0.03 0.01 0.03 0.03 0.01 0.01 0.01 0.00 0.00 0.01 0.00 0.00 0.00 0.00 0.00 0.00 0.00 0.00 0.00 0.00 0.00 0.00 0.00 0.00 0.00 0.00 0.00 0.00 0.00 0.00 0.00 0.00 0.00 0.00 0.00 0.00 0.00 0.00 0.00 0.00 0.00 0.00 0.00 0.00 0.00 0.00 0.00 0.00 0.00 0.00 0.00 0.00 0.00 0.00 0.00 0.00 0.00 0.02 0.03 0.02 0.04 0.18 0.11 0.15 0.07 0.10
0.08 0.06 0.06 0.06 0.06 0.06 0.06 0.06 0.06 0.06 0.05 0.04 0.04 0.04 0.03 0.03 0.05 0.04 0.05 0.04 0.05 0.02 0.02 0.04 0.02 0.01 0.02 0.00 0.01 0.00 0.00 0.00 0.00 0.00 0.00 0.00 0.00 0.00 0.00 0.00 0.00 0.00 0.00 0.00 0.00 0.00 0.00 0.00 0.00 0.00 0.00 0.00 0.00 0.00 0.00 0.00 0.00 0.00 0.00 0.00 0.00 0.00 0.00 0.00 0.00 0.00 0.00 0.00 0.00 0.00 0.00 0.00 0.00 0.00 0.00 0.04 0.01 0.00 0.00 0.02 0.04 0.11 0.10 0.14 0.16 0.13 0.13 0.13
0.07 0.06 0.06 0.05 0.06 0.06 0.05 0.05 0.06 0.05 0.04 0.04 0.05 0.06 0.04 0.03 0.04 0.05 0.04 0.05 0.06 0.04 0.03 0.02 0.02 0.01 0.00 0.01 0.00 0.00 0.00 0.00 0.00 0.00 0.00 0.00 0.00 0.00 0.00 0.00 0.00 0.00 0.00 0.00 0.00 0.00 0.00 0.00 0.00 0.00 0.00 0.00 0.00 0.00 0.00 0.00 0.00 0.00 0.00 0.00 0.00 0.00 0.00 0.00 0.00 0.00 0.00 0.00 0.00 0.00 0.00 0.00 0.00 0.00 0.00 0.00 0.00 0.00 0.01 0.03 0.09 0.09 0.29 0.19 0.23 0.20 0.18 0.27
0.07 0.06 0.05 0.06 0.04 0.05 0.06 0.05 0.05 0.05 0.05 0.05 0.04 0.04 0.05 0.05 0.05 0.04 0.06 0.05 0.03 0.04 0.03 0.03 0.01 0.01 0.01 0.00 0.02 0.00 0.00 0.00 0.00 0.00 0.00 0.00 0.00 0.00 0.00 0.00 0.00 0.00 0.00 0.00 0.00 0.00 0.00 0.00 0.00 0.00 0.00 0.00 0.00 0.00 0.00 0.00 0.00 0.00 0.00 0.00 0.00 0.00 0.00 0.00 0.00 0.00 0.00 0.00 0.00 0.00 0.00 0.00 0.00 0.00 0.00 0.00 0.01 0.02 0.07 0.05 0.03 0.13 0.28 0.27 0.22 0.16 0.22 0.31
0.06 0.06 0.06 0.07 0.06 0.06 0.06 0.05 0.07 0.06 0.05 0.05 0.05 0.05 0.06 0.05 0.05 0.08 0.05 0.05 0.03 0.03 0.03 0.02 0.01 0.01 0.01 0.02 0.00 0.00 0.00 0.00 0.00 0.00 0.00 0.00 0.00 0.00 0.00 0.00 0.00 0.00 0.00 0.00 0.00 0.00 0.00 0.00 0.00 0.00 0.00 0.00 0.00 0.00 0.00 0.00 0.00 0.00 0.00 0.00 0.00 0.00 0.00 0.00 0.00 0.00 0.00 0.00 0.00 0.00 0.00 0.00 0.00 0.00 0.00 0.00 0.00 0.07 0.06 0.03 0.05 0.09 0.35 0.20 0.23 0.11 0.24 0.36
0.05 0.05 0.06 0.05 0.06 0.06 0.06 0.05 0.05 0.06 0.06 0.05 0.06 0.06 0.06 0.06 0.06 0.07 0.05 0.05 0.04 0.02 0.02 0.02 0.01 0.01 0.01 0.01 0.00 0.00 0.00 0.00 0.00 0.00 0.00 0.00 0.00 0.00 0.00 0.00 0.00 0.00 0.00 0.00 0.00 0.00 0.00 0.00 0.00 0.00 0.00 0.00 0.00 0.00 0.00 0.00 0.00 0.00 0.00 0.00 0.00 0.00 0.00 0.00 0.00 0.00 0.00 0.00 0.00 0.00 0.00 0.00 0.00 0.00 0.00 0.00 0.00 0.01 0.01 0.01 0.04 0.05 0.09 0.15 0.17 0.18 0.20 0.25
0.06 0.05 0.06 0.05 0.06 0.06 0.06 0.06 0.06 0.05 0.04 0.06 0.06 0.06 0.06 0.07 0.07 0.05 0.06 0.05 0.04 0.04 0.02 0.02 0.02 0.01 0.01 0.01 0.00 0.01 0.01 0.00 0.00 0.00 0.00 0.00 0.00 0.00 0.00 0.00 0.00 0.00 0.00 0.00 0.00 0.00 0.00 0.00 0.00 0.00 0.00 0.00 0.00 0.00 0.00 0.00 0.00 0.00 0.00 0.00 0.00 0.00 0.00 0.00 0.00 0.00 0.00 0.00 0.00 0.00 0.00 0.00 0.00 0.00 0.00 0.00 0.00 0.00 0.00 0.01 0.02 0.12 0.10 0.10 0.14 0.17 0.31 0.26
0.06 0.06 0.07 0.07 0.05 0.03 0.05 0.06 0.06 0.06 0.06 0.08 0.06 0.05 0.07 0.08 0.08 0.06 0.04 0.04 0.04 0.03 0.03 0.02 0.01 0.01 0.02 0.02 0.01 0.01 0.02 0.00 0.00 0.00 0.00 0.00 0.00 0.00 0.00 0.00 0.00 0.00 0.00 0.00 0.00 0.00 0.00 0.00 0.00 0.00 0.00 0.00 0.00 0.00 0.00 0.00 0.00 0.00 0.00 0.00 0.00 0.00 0.00 0.00 0.00 0.00 0.00 0.00 0.00 0.00 0.00 0.00 0.00 0.00 0.00 0.00 0.01 0.00 0.00 0.01 0.03 0.06 0.12 0.20 0.12 0.26 0.47 0.49
0.05 0.06 0.06 0.06 0.06 0.07 0.06 0.06 0.07 0.07 0.08 0.08 0.08 0.07 0.07 0.08 0.07 0.05 0.04 0.05 0.03 0.05 0.03 0.03 0.01 0.01 0.02 0.04 0.04 0.06 0.01 0.00 0.00 0.00 0.00 0.00 0.00 0.00 0.00 0.00 0.00 0.00 0.00 0.00 0.00 0.00 0.00 0.00 0.00 0.00 0.00 0.00 0.00 0.00 0.00 0.00 0.00 0.00 0.00 0.00 0.00 0.00 0.00 0.00 0.00 0.00 0.00 0.00 0.00 0.00 0.00 0.00 0.00 0.00 0.00 0.01 0.01 0.02 0.01 0.01 0.06 0.07 0.11 0.15 0.15 0.16 0.31 0.66
0.07 0.05 0.05 0.06 0.06 0.05 0.08 0.06 0.08 0.07 0.07 0.10 0.08 0.09 0.07 0.05 0.04 0.06 0.04 0.04 0.05 0.04 0.03 0.02 0.01 0.03 0.04 0.08 0.04 0.05 0.00 0.00 0.00 0.00 0.00 0.00 0.00 0.00 0.00 0.00 0.00 0.00 0.00 0.00 0.00 0.00 0.00 0.00 0.00 0.00 0.00 0.00 0.00 0.00 0.00 0.00 0.00 0.00 0.00 0.00 0.00 0.00 0.00 0.00 0.00 0.00 0.00 0.00 0.00 0.00 0.00 0.00 0.00 0.00 0.00 0.04 0.03 0.07 0.06 0.03 0.04 0.05 0.06 0.19 0.16 0.25 0.20 0.37
0.06 0.06 0.07 0.06 0.06 0.06 0.06 0.06 0.06 0.05 0.05 0.06 0.06 0.07 0.07 0.05 0.05 0.05 0.05 0.03 0.05 0.03 0.04 0.01 0.03 0.02 0.08 0.12 0.06 0.01 0.00 0.00 0.00 0.00 0.00 0.00 0.00 0.00 0.00 0.00 0.00 0.00 0.00 0.00 0.00 0.00 0.00 0.00 0.00 0.00 0.00 0.00 0.00 0.00 0.00 0.00 0.00 0.00 0.00 0.00 0.00 0.00 0.00 0.00 0.00 0.00 0.00 0.00 0.00 0.00 0.00 0.00 0.00 0.00 0.00 0.01 0.05 0.12 0.08 0.05 0.07 0.08 0.18 0.25 0.16 0.27 0.41 0.44
0.06 0.08 0.04 0.04 0.06 0.06 0.04 0.06 0.06 0.07 0.05 0.09 0.06 0.04 0.04 0.03 0.04 0.04 0.05 0.06 0.04 0.04 0.02 0.02 0.06 0.12 0.06 0.16 0.10 0.00 0.00 0.00 0.00 0.00 0.00 0.00 0.00 0.00 0.00 0.00 0.00 0.00 0.00 0.00 0.00 0.00 0.00 0.00 0.00 0.00 0.00 0.00 0.00 0.00 0.00 0.00 0.00 0.00 0.00 0.00 0.00 0.00 0.00 0.00 0.00 0.00 0.00 0.00 0.00 0.00 0.00 0.00 0.00 0.00 0.00 0.00 0.01 0.17 0.11 0.03 0.05 0.14 0.16 0.35 0.18 0.18 0.27 0.34
0.04 0.06 0.06 0.05 0.05 0.08 0.05 0.05 0.06 0.06 0.06 0.05 0.05 0.04 0.04 0.04 0.04 0.06 0.04 0.05 0.03 0.02 0.02 0.04 0.03 0.10 0.31 0.24 0.01 0.00 0.00 0.00 0.00 0.00 0.00 0.00 0.00 0.00 0.00 0.00 0.00 0.00 0.00 0.00 0.00 0.00 0.00 0.00 0.00 0.00 0.00 0.00 0.00 0.00 0.00 0.00 0.00 0.00 0.00 0.00 0.00 0.00 0.00 0.00 0.00 0.00 0.00 0.00 0.00 0.00 0.00 0.00 0.00 0.00 0.01 0.00 0.02 0.08 0.19 0.12 0.07 0.08 0.15 0.19 0.22 0.13 0.27 0.37
0.07 0.05 0.07 0.07 0.04 0.05 0.06 0.06 0.04 0.06 0.05 0.04 0.04 0.05 0.04 0.03 0.07 0.03 0.06 0.04 0.06 0.06 0.05 0.04 0.12 0.10 0.21 0.07 0.00 0.00 0.00 0.00 0.00 0.00 0.00 0.00 0.00 0.00 0.00 0.00 0.00 0.00 0.00 0.00 0.00 0.00 0.00 0.00 0.00 0.00 0.00 0.00 0.00 0.00 0.00 0.00 0.00 0.00 0.00 0.00 0.00 0.00 0.00 0.00 0.00 0.00 0.00 0.00 0.00 0.00 0.00 0.00 0.00 0.00 0.01 0.01 0.01 0.01 0.02 0.07 0.07 0.13 0.12 0.17 0.19 0.17 0.29 0.52
0.06 0.10 0.06 0.07 0.07 0.06 0.07 0.06 0.09 0.08 0.06 0.05 0.04 0.03 0.02 0.02 0.02 0.03 0.05 0.04 0.08 0.03 0.06 0.07 0.06 0.20 0.27 0.01 0.00 0.00 0.00 0.00 0.00 0.00 0.00 0.00 0.00 0.00 0.00 0.00 0.00 0.00 0.00 0.00 0.00 0.00 0.00 0.00 0.00 0.00 0.00 0.00 0.00 0.00 0.00 0.00 0.00 0.00 0.00 0.00 0.00 0.00 0.00 0.00 0.00 0.00 0.00 0.00 0.00 0.00 0.00 0.00 0.00 0.01 0.02 0.01 0.05 0.02 0.02 0.05 0.09 0.22 0.13 0.18 0.21 0.91 0.43 0.35
0.10 0.07 0.12 0.06 0.07 0.07 0.05 0.09 0.04 0.05 0.05 0.09 0.04 0.02 0.03 0.02 0.03 0.02 0.03 0.03 0.02 0.07 0.09 0.11 0.07 0.08 0.08 0.04 0.00 0.00 0.00 0.00 0.00 0.00 0.00 0.00 0.00 0.00 0.00 0.00 0.00 0.00 0.00 0.00 0.00 0.00 0.00 0.00 0.00 0.00 0.00 0.00 0.00 0.00 0.00 0.00 0.00 0.00 0.00 0.00 0.00 0.00 0.00 0.00 0.00 0.00 0.00 0.00 0.00 0.00 0.00 0.00 0.00 0.04 0.09 0.07 0.04 0.02 0.02 0.05 0.05 0.11 0.32 0.44 0.50 1.02 0.60 0.57
0.10 0.06 0.05 0.06 0.05 0.06 0.07 0.06 0.05 0.04 0.07 0.05 0.09 0.01 0.01 0.00 0.01 0.00 0.02 0.03 0.03 0.03 0.10 0.04 0.02 0.09 0.15 0.00 0.00 0.00 0.00 0.00 0.00 0.00 0.00 0.00 0.00 0.00 0.00 0.00 0.00 0.00 0.00 0.00 0.00 0.00 0.00 0.00 0.00 0.00 0.00 0.00 0.00 0.00 0.00 0.00 0.00 0.00 0.00 0.00 0.00 0.00 0.00 0.00 0.00 0.00 0.00 0.00 0.00 0.00 0.00 0.00 0.00 0.01 0.08 0.37 0.17 0.02 0.04 0.12 0.08 0.11 0.39 0.59 1.66 0.96 0.90 1.17
0.09 0.06 0.06 0.06 0.07 0.04 0.04 0.11 0.08 0.05 0.06 0.05 0.05 0.01 0.01 0.00 0.01 0.01 0.01 0.01 0.02 0.01 0.06 0.03 0.07 0.37 0.09 0.00 0.00 0.00 0.00 0.00 0.00 0.00 0.00 0.00 0.00 0.00 0.00 0.00 0.00 0.00 0.00 0.00 0.00 0.00 0.00 0.00 0.00 0.00 0.00 0.00 0.00 0.00 0.00 0.00 0.00 0.00 0.00 0.00 0.00 0.00 0.00 0.00 0.00 0.00 0.00 0.00 0.00 0.00 0.00 0.00 0.00 0.00 0.01 0.01 0.02 0.01 0.02 0.10 0.14 0.23 0.67 1.39 1.24 0.99 1.48 1.13
0.10 0.06 0.06 0.05 0.03 0.06 0.09 0.09 0.06 0.07 0.09 0.05 0.02 0.01 0.00 0.01 0.03 0.02 0.01 0.08 0.08 0.20 0.11 0.09 0.15 0.03 0.04 0.00 0.00 0.00 0.00 0.00 0.00 0.00 0.00 0.00 0.00 0.00 0.00 0.00 0.00 0.00 0.00 0.00 0.00 0.00 0.00 0.00 0.00 0.00 0.00 0.00 0.00 0.00 0.00 0.00 0.00 0.00 0.00 0.00 0.00 0.00 0.00 0.00 0.00 0.00 0.00 0.00 0.00 0.00 0.00 0.00 0.00 0.00 0.00 0.01 0.01 0.01 0.03 0.21 0.67 0.71 0.48 0.66 0.99 1.38 0.96 0.64
0.09 0.07 0.05 0.05 0.05 0.04 0.05 0.05 0.04 0.08 0.14 0.06 0.03 0.02 0.04 0.07 0.19 0.11 0.02 0.05 0.03 0.01 0.00 0.00 0.00 0.00 0.00 0.00 0.00 0.00 0.00 0.00 0.00 0.00 0.00 0.00 0.00 0.00 0.00 0.00 0.00 0.00 0.00 0.00 0.00 0.00 0.00 0.00 0.00 0.00 0.00 0.00 0.00 0.00 0.00 0.00 0.00 0.00 0.00 0.00 0.00 0.00 0.00 0.00 0.00 0.00 0.00 0.00 0.00 0.00 0.00 0.00 0.00 0.00 0.00 0.01 0.05 0.07 0.12 0.40 0.22 0.25 0.50 1.37 1.74 0.75 0.98 1.12
0.08 0.07 0.08 0.06 0.05 0.04 0.05 0.07 0.07 0.05 0.15 0.11 0.08 0.04 0.03 0.03 0.07 0.12 0.27 0.06 0.03 0.01 0.00 0.00 0.00 0.00 0.00 0.00 0.00 0.00 0.00 0.00 0.00 0.00 0.00 0.00 0.00 0.00 0.02 0.00 0.00 0.00 0.00 0.00 0.00 0.00 0.00 0.00 0.00 0.00 0.00 0.00 0.00 0.00 0.00 0.00 0.00 0.00 0.00 0.00 0.00 0.00 0.00 0.00 0.00 0.00 0.00 0.00 0.00 0.00 0.00 0.00 0.00 0.00 0.00 0.01 0.04 0.07 0.05 0.14 0.14 0.39 0.62 1.29 0.75 0.70 0.52 0.58
0.11 0.09 0.07 0.10 0.03 0.06 0.07 0.11 0.06 0.18 0.05 0.09 0.10 0.05 0.02 0.05 0.06 0.07 0.22 0.15 0.02 0.01 0.00 0.00 0.00 0.00 0.00 0.00 0.00 0.00 0.00 0.00 0.00 0.00 0.00 0.00 0.01 0.02 0.06 0.01 0.01 0.00 0.00 0.00 0.00 0.00 0.00 0.00 0.00 0.00 0.00 0.00 0.00 0.00 0.00 0.00 0.00 0.00 0.00 0.00 0.00 0.00 0.00 0.00 0.00 0.00 0.00 0.00 0.00 0.00 0.00 0.00 0.00 0.00 0.00 0.02 0.02 0.04 0.03 0.08 0.29 0.61 1.32 0.85 0.47 0.34 0.56 0.51
0.12 0.07 0.07 0.05 0.07 0.03 0.05 0.05 0.04 0.07 0.13 0.11 0.10 0.04 0.07 0.03 0.05 0.15 0.27 0.19 0.12 0.01 0.02 0.01 0.01 0.00 0.00 0.00 0.00 0.00 0.00 0.00 0.00 0.00 0.00 0.00 0.00 0.00 0.04 0.03 0.01 0.00 0.00 0.00 0.00 0.00 0.00 0.00 0.01 0.00 0.00 0.00 0.00 0.00 0.00 0.00 0.00 0.00 0.00 0.00 0.00 0.00 0.00 0.03 0.00 0.00 0.00 0.00 0.00 0.00 0.01 0.01 0.00 0.00 0.00 0.02 0.02 0.03 0.03 0.11 0.42 1.01 0.22 0.48 0.91 0.90 0.46 0.18
0.13 0.13 0.10 0.08 0.08 0.07 0.07 0.09 0.07 0.05 0.06 0.06 0.05 0.09 0.06 0.06 0.14 0.11 0.22 0.26 0.02 0.00 0.00 0.00 0.00 0.00 0.00 0.00 0.00 0.00 0.00 0.00 0.00 0.00 0.00 0.00 0.00 0.00 0.01 0.04 0.02 0.00 0.00 0.00 0.00 0.00 0.00 0.00 0.01 0.01 0.00 0.00 0.00 0.00 0.00 0.00 0.00 0.00 0.00 0.00 0.00 0.00 0.00 0.00 0.07 0.00 0.00 0.00 0.00 0.00 0.00 0.01 0.00 0.00 0.00 0.00 0.02 0.07 0.19 0.43 0.81 0.62 0.82 0.83 0.56 0.44 0.49 0.62
0.06 0.07 0.08 0.07 0.11 0.25 0.13 0.13 0.04 0.08 0.05 0.04 0.13 0.11 0.08 0.09 0.50 0.23 0.26 0.19 0.06 0.01 0.00 0.00 0.00 0.00 0.00 0.00 0.00 0.00 0.00 0.00 0.00 0.00 0.00 0.00 0.00 0.00 0.03 0.03 0.02 0.02 0.02 0.00 0.00 0.00 0.00 0.01 0.00 0.00 0.00 0.00 0.00 0.00 0.00 0.00 0.00 0.00 0.00 0.00 0.00 0.00 0.00 0.00 0.00 0.00 0.00 0.01 0.00 0.00 0.02 0.01 0.01 0.00 0.01 0.00 0.01 0.11 0.27 0.20 0.15 0.34 0.73 0.77 0.80 0.71 0.68 0.67
0.12 0.08 0.13 0.11 0.14 0.38 0.08 0.04 0.13 0.08 0.07 0.17 0.15 0.13 0.17 0.30 0.28 0.32 0.16 0.22 0.10 0.01 0.00 0.00 0.00 0.00 0.00 0.00 0.00 0.00 0.00 0.01 0.00 0.00 0.00 0.00 0.00 0.00 0.01 0.01 0.00 0.06 0.00 0.00 0.00 0.00 0.00 0.00 0.00 0.00 0.00 0.00 0.00 0.00 0.00 0.00 0.00 0.00 0.03 0.00 0.00 0.00 0.00 0.00 0.00 0.00 0.00 0.03 0.05 0.00 0.01 0.03 0.01 0.02 0.00 0.00 0.01 0.06 0.25 0.16 0.16 0.10 0.10 0.29 0.15 0.24 0.24 0.23
0.06 0.19 0.13 0.16 0.23 0.35 0.20 0.29 0.13 0.07 0.17 0.22 0.12 0.15 0.16 0.21 0.14 0.19 0.51 0.13 0.12 0.14 0.03 0.01 0.01 0.14 0.00 0.00 0.03 0.01 0.03 0.04 0.00 0.00 0.00 0.00 0.00 0.00 0.01 0.01 0.00 0.00 0.02 0.06 0.00 0.00 0.00 0.01 0.00 0.00 0.00 0.00 0.00 0.00 0.00 0.00 0.00 0.02 0.01 0.00 0.00 0.00 0.00 0.00 0.00 0.00 0.02 0.00 0.00 0.00 0.00 0.03 0.02 0.07 0.00 0.01 0.01 0.06 0.08 0.08 0.16 0.10 0.24 0.19 0.28 0.29 0.57 0.50
0.09 0.16 0.09 0.10 0.34 0.40 0.57 0.20 0.11 0.13 0.25 0.61 0.57 0.21 0.16 0.09 0.32 0.52 0.33 0.20 0.06 0.14 0.22 0.13 0.09 0.09 0.16 0.04 0.00 0.00 0.01 0.00 0.02 0.01 0.00 0.00 0.00 0.00 0.00 0.02 0.00 0.00 0.01 0.01 0.02 0.00 0.00 0.00 0.00 0.00 0.00 0.00 0.00 0.00 0.00 0.00 0.00 0.02 0.00 0.00 0.00 0.00 0.01 0.00 0.00 0.00 0.05 0.01 0.05 0.00 0.00 0.00 0.05 0.05 0.00 0.00 0.03 0.09 0.10 0.14 0.12 0.15 0.28 0.25 0.26 0.29 0.60 0.59
0.13 0.14 0.13 0.12 0.15 0.22 0.32 0.22 0.14 0.13 0.30 0.15 0.22 0.29 0.14 0.34 0.24 0.80 0.78 0.26 0.61 0.24 0.20 0.18 0.02 0.45 0.23 0.04 0.02 0.00 0.01 0.00 0.08 0.02 0.00 0.00 0.00 0.00 0.01 0.00 0.02 0.01 0.01 0.01 0.00 0.00 0.00 0.00 0.00 0.02 0.00 0.00 0.00 0.00 0.00 0.00 0.01 0.00 0.00 0.00 0.00 0.00 0.00 0.00 0.01 0.00 0.08 0.00 0.02 0.05 0.10 0.03 0.05 0.03 0.04 0.06 0.02 0.10 0.16 0.19 0.14 0.28 0.37 0.34 0.27 0.45 0.47 0.48
0.10 0.10 0.21 0.12 0.17 0.16 0.48 0.59 0.29 0.29 0.15 0.24 0.19 0.17 0.22 0.41 1.34 0.48 0.66 0.22 0.30 0.67 0.13 0.29 0.16 0.35 0.08 0.10 0.09 0.03 0.03 0.05 0.01 0.01 0.00 0.00 0.00 0.00 0.00 0.00 0.16 0.09 0.05 0.00 0.00 0.05 0.00 0.00 0.03 0.02 0.01 0.00 0.00 0.00 0.00 0.00 0.00 0.00 0.00 0.00 0.00 0.00 0.01 0.00 0.00 0.06 0.04 0.00 0.02 0.02 0.02 0.00 0.09 0.14 0.17 0.11 0.06 0.05 0.12 0.23 0.33 0.32 0.41 0.61 0.26 0.25 0.41 0.48
0.17 0.15 0.14 0.27 0.34 0.25 0.17 0.18 0.21 0.32 0.29 0.27 0.15 0.20 0.32 0.95 0.86 0.54 0.27 0.40 0.53 0.58 0.23 0.33 0.35 0.15 0.25 0.23 0.20 0.09 0.04 0.05 0.03 0.03 0.11 0.01 0.01 0.00 0.00 0.02 0.04 0.07 0.06 0.02 0.03 0.07 0.00 0.00 0.03 0.00 0.00 0.00 0.00 0.00 0.00 0.00 0.00 0.00 0.00 0.02 0.00 0.02 0.00 0.00 0.04 0.03 0.08 0.00 0.03 0.02 0.01 0.02 0.07 0.19 0.17 0.11 0.09 0.11 0.08 0.14 0.21 0.42 0.24 0.25 0.30 0.26 0.27 0.47
0.10 0.22 0.20 0.34 0.24 0.22 0.21 0.46 0.41 0.24 0.22 0.28 0.21 0.26 0.56 0.75 0.65 0.66 0.24 0.15 0.59 0.99 0.77 0.43 0.37 0.25 0.24 0.19 0.24 0.17 0.10 0.07 0.05 0.12 0.10 0.03 0.02 0.00 0.00 0.16 0.00 0.09 0.09 0.08 0.07 0.05 0.04 0.03 0.02 0.01 0.00 0.00 0.00 0.00 0.00 0.00 0.00 0.00 0.00 0.01 0.19 0.16 0.03 0.04 0.05 0.02 0.01 0.04 0.04 0.00 0.00 0.07 0.01 0.31 0.15 0.16 0.14 0.34 0.13 0.12 0.15 0.16 0.15 0.18 0.29 0.21 0.30 0.50
0.07 0.13 0.20 0.13 0.27 0.15 0.06 0.19 0.08 0.25 0.19 0.55 0.21 0.63 0.87 0.96 0.54 0.25 0.26 0.31 1.30 1.30 0.64 0.39 0.47 0.38 0.35 0.19 0.07 0.05 0.17 0.19 0.08 0.08 0.05 0.13 0.02 0.00 0.01 0.07 0.02 0.05 0.06 0.07 0.04 0.04 0.02 0.04 0.00 0.00 0.00 0.00 0.00 0.00 0.02 0.00 0.00 0.00 0.01 0.13 0.04 0.11 0.06 0.02 0.07 0.01 0.05 0.03 0.01 0.04 0.01 0.04 0.24 0.23 0.23 0.48 0.27 0.25 0.12 0.10 0.13 0.13 0.21 0.21 0.32 0.33 0.48 0.46
0.07 0.09 0.19 0.26 0.18 0.10 0.25 0.10 0.12 0.11 0.23 0.41 0.45 0.73 1.78 0.65 0.36 0.68 0.46 0.58 0.95 0.64 0.56 0.45 0.48 0.22 0.09 0.25 0.11 0.02 0.13 0.07 0.07 0.12 0.07 0.06 0.03 0.04 0.03 0.01 0.02 0.11 0.10 0.08 0.05 0.04 0.07 0.13 0.02 0.00 0.04 0.01 0.00 0.00 0.00 0.03 0.01 0.01 0.00 0.01 0.09 0.13 0.07 0.02 0.06 0.05 0.02 0.18 0.09 0.02 0.01 0.08 0.07 1.01 0.27 0.37 0.36 0.35 0.33 0.35 0.43 0.43 0.19 0.20 0.26 0.35 0.44 1.23
0.10 0.13 0.08 0.11 0.12 0.09 0.19 0.20 0.07 0.12 0.30 0.33 0.58 0.82 0.73 0.38 0.42 0.43 0.83 0.53 0.59 0.68 0.71 0.38 0.38 0.27 0.26 0.11 0.15 0.03 0.08 0.26 0.03 0.09 0.07 0.09 0.04 0.03 0.02 0.03 0.00 0.02 0.09 0.07 0.10 0.01 0.04 0.05 0.07 0.00 0.01 0.01 0.00 0.00 0.00 0.00 0.00 0.01 0.00 0.00 0.05 0.05 0.00 0.09 0.30 0.06 0.16 0.08 0.04 0.05 0.08 0.48 0.68 0.80 0.51 0.21 0.20 1.13 1.51 1.24 1.27 0.82 0.82 0.34 0.34 0.42 1.10 1.02
0.05 0.45 0.22 0.25 0.10 0.15 0.17 0.05 0.08 0.25 0.27 0.61 0.75 0.78 0.63 0.57 0.71 0.67 1.18 0.46 0.70 0.99 0.73 0.46 0.29 0.47 0.32 0.44 0.10 0.12 0.03 0.28 0.11 0.13 0.10 0.03 0.03 0.03 0.01 0.02 0.04 0.00 0.06 0.05 0.15 0.09 0.02 0.13 0.01 0.01 0.00 0.00 0.00 0.00 0.00 0.00 0.22 0.32 0.00 0.01 0.03 0.02 0.01 0.02 0.00 0.01 0.00 0.00 0.03 0.01 0.13 0.25 0.20 0.77 0.43 0.77 0.43 0.48 1.05 1.53 1.68 1.89 1.91 1.62 1.65 1.74 1.63 0.96
0.38 0.12 0.28 0.28 0.08 0.06 0.03 0.05 0.07 0.53 0.21 0.47 0.82 0.64 0.27 0.49 0.35 0.43 0.74 0.54 0.65 0.91 1.26 1.04 0.75 0.60 0.55 0.34 0.28 0.08 0.38 0.06 0.22 0.09 0.40 0.04 0.15 0.01 0.03 0.02 0.01 0.01 0.01 0.07 0.12 0.04 0.10 0.25 0.01 0.00 0.00 0.00 0.00 0.00 0.00 0.00 0.00 0.06 0.03 0.03 0.00 0.00 0.02 0.02 0.16 0.08 0.01 0.04 0.06 0.02 0.05 0.30 0.06 0.63 0.50 0.46 0.74 1.13 0.88 0.79 1.96 1.70 1.72 1.90 1.99 1.31 1.29 1.66
0.22 0.11 0.15 0.20 0.12 0.05 0.04 0.04 0.07 0.28 0.26 0.56 0.67 0.45 0.30 0.50 0.28 0.31 0.45 0.63 0.64 0.65 1.09 1.05 1.26 0.69 0.58 0.33 0.31 0.18 0.47 0.21 0.43 0.10 0.29 0.03 0.28 0.00 0.03 0.03 0.01 0.00 0.00 0.00 0.05 0.06 0.02 0.12 0.05 0.00 0.00 0.00 0.00 0.00 0.00 0.00 0.00 0.00 0.07 0.01 0.01 0.09 0.07 0.04 0.00 0.02 0.03 0.02 0.09 0.02 0.10 0.10 0.13 0.52 0.27 0.50 0.44 0.62 0.53 0.63 0.45 0.98 1.49 2.13 2.30 2.39 2.08 1.38
0.39 0.35 0.39 0.22 0.15 0.05 0.04 0.06 0.09 0.24 0.54 0.56 0.53 0.79 0.40 0.46 0.23 0.48 0.52 0.68 0.71 0.74 0.78 0.89 1.30 0.84 0.84 0.47 0.26 0.11 0.25 0.28 0.11 0.28 0.40 0.22 0.32 0.15 0.10 0.01 0.07 0.00 0.01 0.03 0.01 0.05 0.00 0.04 0.06 0.01 0.00 0.02 0.00 0.00 0.00 0.01 0.00 0.00 0.00 0.00 0.00 0.00 0.04 0.06 0.03 0.10 0.01 0.25 0.02 0.15 0.07 0.13 0.19 0.34 0.14 0.30 0.62 0.81 0.35 0.31 0.40 0.52 0.83 0.96 1.26 1.26 1.06 0.66
0.33 0.72 0.46 0.21 0.11 0.04 0.03 0.05 0.18 0.31 0.51 0.51 0.32 0.47 0.34 0.49 0.36 0.31 0.44 0.68 0.78 0.54 0.60 0.67 0.66 1.08 0.66 0.47 0.39 0.39 0.11 0.28 0.21 0.42 0.21 0.57 0.09 0.02 0.10 0.00 0.04 0.00 0.00 0.00 0.01 0.00 0.06 0.07 0.11 0.06 0.02 0.01 0.08 0.01 0.01 0.01 0.06 0.01 0.00 0.00 0.01 0.01 0.05 0.01 0.14 0.02 0.12 0.16 0.07 0.12 0.17 0.46 0.56 0.14 0.19 0.18 0.34 0.82 0.84 0.47 0.54 0.50 0.44 0.71 0.88 1.30 0.94 0.78
0.22 0.63 0.47 0.56 0.29 0.03 0.04 0.17 0.29 0.38 0.37 0.26 0.39 0.43 0.39 0.64 0.47 0.40 0.35 0.39 0.72 0.47 0.48 0.64 0.57 1.01 0.83 0.72 0.37 0.22 0.20 0.29 0.15 0.33 0.14 0.17 0.12 0.18 0.01 0.04 0.01 0.06 0.00 0.04 0.00 0.04 0.02 0.01 0.04 0.06 0.02 0.02 0.05 0.01 0.00 0.00 0.00 0.01 0.01 0.06 0.02 0.10 0.09 0.07 0.09 0.01 0.05 0.06 0.12 0.03 0.16 0.47 0.44 0.09 0.28 0.26 0.27 0.21 0.50 0.74 0.60 1.05 0.88 1.57 1.35 1.25 1.53 2.64
0.85 0.58 1.06 0.61 0.20 0.19 0.16 0.49 0.20 0.19 0.38 0.29 0.40 0.42 0.58 0.51 0.72 0.49 0.39 0.27 0.43 0.50 0.42 0.56 0.38 1.05 0.65 0.55 0.42 0.26 0.23 0.21 0.09 0.20 0.15 0.36 0.45 0.21 0.21 0.00 0.01 0.03 0.05 0.04 0.01 0.05 0.08 0.05 0.10 0.03 0.07 0.12 0.02 0.01 0.00 0.00 0.00 0.00 0.00 0.01 0.00 0.05 0.03 0.08 0.11 0.19 0.05 0.04 0.04 0.24 0.09 0.61 0.32 0.21 0.35 0.32 0.21 0.29 0.23 0.25 0.70 0.73 0.70 0.66 0.64 1.32 1.34 2.06
0.43 0.55 1.29 0.89 0.29 0.22 0.36 0.34 0.13 0.24 0.28 0.30 0.23 0.36 0.47 0.64 0.62 0.61 0.53 0.34 0.54 0.49 0.57 0.57 0.36 0.80 0.86 0.68 0.53 0.43 0.06 0.15 0.06 0.35 0.19 0.07 0.28 0.10 0.08 0.03 0.01 0.04 0.00 0.22 0.00 0.04 0.00 0.01 0.04 0.05 0.08 0.04 0.02 0.00 0.00 0.00 0.00 0.01 0.00 0.00 0.00 0.08 0.03 0.04 0.13 0.25 0.06 0.11 0.10 0.09 0.09 0.69 0.46 0.35 0.61 0.34 0.20 0.17 0.30 0.62 0.60 0.86 0.84 0.56 0.68 0.79 0.92 1.06
0.68 2.16 1.08 0.91 0.44 0.45 0.43 0.36 0.30 0.16 0.11 0.12 0.22 0.27 0.26 0.60 0.68 0.60 0.55 0.55 0.78 0.59 0.58 0.43 0.25 0.64 0.63 0.62 0.35 0.42 0.15 0.25 0.03 0.23 0.21 0.07 0.40 0.04 0.02 0.04 0.02 0.06 0.06 0.30 0.15 0.04 0.16 0.03 0.05 0.13 0.11 0.18 0.21 0.05 0.00 0.00 0.00 0.00 0.01 0.02 0.00 0.00 0.02 0.08 0.04 0.12 0.02 0.10 0.24 0.17 0.12 0.53 0.86 0.58 0.99 0.80 0.42 0.50 0.53 0.43 0.53 0.23 0.30 0.36 0.40 0.35 0.79 0.79
1.07 1.46 1.37 1.00 0.55 0.49 0.72 0.50 0.37 0.19 0.28 0.21 0.22 0.25 0.43 0.50 0.57 0.54 0.60 0.69 0.74 0.77 0.53 0.30 0.19 0.54 1.10 0.63 0.43 0.18 0.07 0.46 0.28 0.16 0.16 0.31 0.55 0.00 0.01 0.01 0.02 0.17 0.08 0.06 0.01 0.07 0.09 0.20 0.02 0.11 0.26 0.16 0.18 0.24 0.28 0.12 0.06 0.03 0.00 0.00 0.01 0.01 0.19 0.11 0.06 0.08 0.02 0.07 0.03 0.12 0.60 0.46 0.51 0.54 0.54 0.34 0.29 0.29 0.39 0.22 0.15 0.60 1.44 0.76 0.63 0.50 0.40 0.80
1.25 1.64 1.11 1.09 1.29 1.13 0.20 0.36 0.31 0.60 0.32 0.28 0.25 0.29 0.34 0.59 0.43 0.46 0.48 0.74 0.58 0.73 0.53 0.30 0.18 0.14 0.31 0.39 0.61 0.59 0.44 0.05 0.19 0.22 0.27 0.36 0.19 0.05 0.01 0.03 0.15 0.06 0.08 0.04 0.05 0.03 0.26 0.09 0.11 0.09 0.26 0.38 0.49 0.38 0.12 0.05 0.26 0.05 0.05 0.01 0.06 0.00 0.02 0.05 0.09 0.06 0.18 0.16 0.09 0.20 0.27 0.37 0.60 0.64 0.28 0.46 0.50 0.55 0.69 0.31 0.21 0.28 0.44 0.41 0.95 1.45 1.43 0.98
1.03 1.47 1.06 0.89 0.47 0.54 0.68 0.31 0.35 0.25 0.43 0.51 0.64 0.34 0.43 0.42 0.47 0.50 0.43 0.90 0.57 0.61 0.36 0.66 0.37 0.34 0.23 0.19 0.21 0.60 0.30 0.24 0.28 0.28 0.39 0.52 0.36 0.16 0.02 0.05 0.16 0.05 0.01 0.03 0.05 0.25 0.30 0.25 0.09 0.16 0.19 0.11 0.10 0.13 0.21 0.09 0.08 0.05 0.05 0.05 0.02 0.03 0.02 0.10 0.04 0.10 0.32 0.14 0.20 0.46 0.26 0.06 0.38 0.41 0.39 0.50 0.42 0.28 0.66 0.43 0.28 0.25 0.51 0.64 0.51 0.49 0.42 0.84
1.32 1.74 1.31 1.08 0.89 0.50 0.55 0.96 0.28 0.57 0.20 0.31 0.62 0.30 0.40 0.46 0.49 0.91 0.71 0.77 0.96 0.38 0.54 0.33 0.29 0.19 0.20 0.22 0.15 0.34 0.54 0.34 0.41 0.24 0.46 0.32 0.19 0.40 0.44 0.02 0.07 0.06 0.03 0.08 0.14 0.20 0.65 0.39 0.36 0.17 0.29 0.15 0.07 0.08 0.11 0.12 0.10 0.10 0.11 0.11 0.07 0.09 0.08 0.08 0.03 0.03 0.14 0.06 0.15 0.40 0.50 0.14 0.35 0.46 0.34 0.54 0.46 0.64 0.38 0.56 0.48 0.42 0.34 0.61 0.44 0.48 0.46 0.44
1.55 1.53 1.48 0.48 0.80 0.89 0.63 0.45 0.34 0.35 0.62 0.39 0.63 0.31 0.45 0.35 0.58 0.76 1.38 1.08 0.88 0.72 0.44 0.76 0.45 0.20 0.17 0.09 0.22 0.33 0.38 0.59 0.29 0.65 0.53 0.27 0.34 0.37 0.58 0.26 0.16 0.10 0.02 0.09 0.25 0.24 0.22 0.48 0.66 0.44 0.51 0.27 0.16 0.14 0.12 0.26 0.15 0.13 0.20 0.19 0.14 0.18 0.11 0.17 0.12 0.06 0.14 0.17 0.14 0.17 0.21 0.30 0.25 0.45 0.31 0.40 0.32 0.18 0.30 0.40 0.26 0.36 0.55 0.47 0.52 0.50 0.45 0.23
1.60 2.39 1.60 0.75 0.54 0.51 0.44 0.39 0.55 0.48 0.41 0.25 0.46 0.36 0.45 0.40 0.50 0.53 0.88 1.12 0.96 0.55 0.50 0.65 0.70 0.30 0.22 0.16 0.17 0.60 0.67 0.92 0.99 0.61 0.39 0.20 0.26 0.21 0.61 0.48 0.69 0.27 0.10 0.24 0.15 0.38 0.33 0.46 0.16 0.37 0.59 0.79 0.54 0.13 0.14 0.34 0.23 0.13 0.07 0.13 0.17 0.37 0.21 0.06 0.17 0.27 0.20 0.21 0.06 0.04 0.02 0.40 0.49 0.27 0.41 0.33 0.24 0.10 0.11 0.18 0.34 0.59 0.35 0.31 0.42 0.31 0.25 0.28
1.53 1.76 1.78 1.15 0.64 0.70 0.63 0.32 0.41 0.61 0.49 0.34 0.39 0.38 0.29 0.42 0.55 0.70 0.87 0.49 0.99 0.77 0.57 0.63 0.71 0.88 0.34 0.25 0.34 0.60 0.73 0.72 0.83 0.81 0.23 0.57 0.62 0.38 0.67 0.38 0.14 0.22 0.20 0.18 0.15 0.65 0.13 0.65 0.44 0.67 0.26 0.52 0.31 0.24 0.24 0.29 0.42 0.25 0.13 0.10 0.11 0.15 0.25 0.08 0.09 0.18 0.37 0.35 0.25 0.13 0.01 0.17 0.58 0.19 0.24 0.26 0.17 0.14 0.14 0.14 0.13 0.14 0.36 0.27 0.23 0.32 0.22 0.21
1.25 0.88 1.15 1.29 0.60 0.27 0.43 0.21 0.39 0.39 0.80 0.59 0.39 0.28 0.47 0.22 0.29 0.43 0.48 0.21 0.58 0.74 0.61 0.66 0.67 0.89 0.61 0.79 0.68 0.43 0.62 0.69 0.52 0.73 0.25 0.19 0.18 0.75 0.41 0.56 0.60 0.87 0.55 0.34 0.39 0.55 0.52 0.22 0.22 0.45 0.42 0.49 0.65 0.26 0.50 0.35 0.48 0.46 0.68 0.19 0.10 0.11 0.26 0.09 0.08 0.05 0.16 0.68 0.58 0.27 0.08 0.09 0.21 0.19 0.19 0.34 0.43 0.20 0.21 0.15 0.12 0.14 0.12 0.12 0.14 0.15 0.14 0.18